OpenBCM V1.08-5-g2f4a (Linux)

Packet Radio Mailbox

IZ3LSV

[San Dona' di P. JN]

 Login: GUEST





  
I0OJJ  > KEPS     27.04.25 02:25l 355 Lines 16924 Bytes #38 (0) @ AMSAT
BID : ORB25117.1
Read: GUEST
Subj: 2Line Orbital Elements 25117.AMSAT
Path: IZ3LSV<I0OJJ
Sent: 250427/0025z @:I0OJJ.ITA.EU [Rome] obcm1.08-6-g5b69
From: I0OJJ @ I0OJJ.ITA.EU (Gustavo)
To:   KEPS @ AMSAT
X-Info: This message was generated automatically


QST de W1STR

AMSAT Orbital Elements for Amateur Satellites in TLE Format
From Orbital Analysis Office
New England Sci-Tech STEM Education Center
Natick, MA April 27, 2025
To all radio amateurs


These element sets describe the orbits of various satellites 
in use by the amateur radio community. For details see:
www.amsat.org/keplerian-elements-formats/

A daily update of element sets is available at:
www.amsat.org/tle/daily-bulletin.txt
or without bulletin text:
www.amsat.org/tle/dailytle.txt


AO-07
1 07530U 74089B   25115.95132800 -.00000027  00000-0  12482-3 0  9995
2 07530 101.9948 119.7386 0012047 205.7155 182.1396 12.53688628308474
UO-11
1 14781U 84021B   25116.86290461  .00003451  00000-0  37018-3 0  9992
2 14781  97.7508  84.1108 0009286 115.5155 244.7023 14.89230873216139
AO-27
1 22825U 93061C   25116.72057336  .00000250  00000-0  11278-3 0  9995
2 22825  98.7401 178.0501 0007463 237.0146 123.0319 14.30781788647716
FO-29
1 24278U 96046B   25116.17003544  .00000018  00000-0  51621-4 0  9995
2 24278  98.5803  15.8998 0350929  97.6300 266.4837 13.53244989417018
NOAA-15
1 25338U 98030A   25116.84707494  .00000395  00000-0  17996-3 0  9991
2 25338  98.5390 143.0238 0011342 124.3585 235.8670 14.26951735402164
GO-32
1 25397U 98043D   25116.85654913  .00000220  00000-0  11516-3 0  9997
2 25397  98.9681  95.0702 0001316  23.6467 336.4771 14.24301596392281
ISS
1 25544U 98067A   25116.73932285  .00017591  00000-0  32329-3 0  9999
2 25544  51.6361 201.8681 0002484  75.9252 284.2013 15.49303626507188
NO-44
1 26931U 01043C   25116.77577307  .00000444  00000-0  19744-3 0  9997
2 26931  67.0509 241.0924 0005645 271.8426  88.2029 14.31708838230997
SO-50
1 27607U 02058C   25116.88039135  .00002678  00000-0  35159-3 0  9998
2 27607  64.5551 335.4142 0051119 344.3424  15.6097 14.81489548202962
CO-55
1 27844U 03031E   25116.55300716  .00000696  00000-0  32227-3 0  9994
2 27844  98.6778 125.3927 0008788 321.5868  38.4685 14.23955273132400
CO-57
1 27848U 03031J   25116.48093225  .00000592  00000-0  28064-3 0  9993
2 27848  98.6804 125.3602 0009056 340.0725  20.0099 14.23295533132144
RS-22
1 27939U 03042A   25116.92079366  .00002805  00000-0  45247-3 0  9996
2 27939  98.3244 285.3295 0012276 143.9919  11.3489 14.72219635154400
NOAA-18
1 28654U 05018A   25116.80866118  .00000366  00000-0  21744-3 0  9998
2 28654  98.8423 196.7762 0013182 251.5653 108.4087 14.13585017 27564
CO-58
1 28895U 05043F   25116.37031382  .00003780  00000-0  62568-3 0  9994
2 28895  98.2425 260.1890 0015843  88.6886 271.6135 14.70830718 40676
CO-65
1 32785U 08021C   25116.90027194  .00010842  00000-0  78962-3 0  9993
2 32785  97.7826  87.7655 0010284  14.9932 345.1597 15.03906168922586
AAUSAT2
1 32788U 08021F   25116.49004257  .00432445  00000-0  23968-2 0  9997
2 32788  97.5969 113.1869 0009114 132.9135 227.2897 15.78342659926535
CO-66
1 32791U 08021J   25116.87308249  .00024658  00000-0  12309-2 0  9991
2 32791  97.7256  95.9843 0003006   2.8357 357.2893 15.17485246923949
RS-30
1 32953U 08025A   25116.86279344  .00000009  00000-0 -93268-5 0  9998
2 32953  82.5008 254.3633 0020334 139.8538 220.4048 12.43163098768101
NOAA-19
1 33591U 09005A   25116.80800580  .00000349  00000-0  20993-3 0  9991
2 33591  98.9999 181.2616 0014736 125.7077 234.5468 14.13349416835926
SRMSAT
1 37841U 11058D   25116.57107315  .00000599  00000-0  18197-3 0  9994
2 37841  19.9723  60.8584 0011566 300.9062 216.4501 14.11418712699100
ZACUBE-1
1 39417U 13066B   25116.85505000  .00006991  00000-0  61359-3 0  9990
2 39417  97.7770  74.1261 0043743 196.0870 163.8965 14.96181635618373
Delfi-N3xt
1 39428U 13066N   25116.18017464  .00011885  00000-0  12233-2 0  9994
2 39428  97.8366  34.3519 0086908 145.5801 215.1087 14.87632766612651
GOMX-1
1 39430U 13066Q   25116.84951623  .00003731  00000-0  58573-3 0  9993
2 39430  97.6890 338.1898 0132236 333.0440  26.3937 14.67455933608993
LO-74
1 39440U 13066AA  25116.07952296  .00008880  00000-0  90437-3 0  9991
2 39440  97.8469  60.9672 0061618 328.6408  31.1140 14.89532785616014
AO-73
1 39444U 13066AE  25116.84444636  .00013629  00000-0  10358-2 0  9994
2 39444  97.7749  78.6228 0041297 172.6476 187.5362 15.01587325617618
DTUSAT-2
1 40030U 14033W   25116.89401540  .00013035  00000-0  86003-3 0  9996
2 40030  98.0523  86.6316 0008468 194.3111 165.7876 15.07571012590320
EO-80
1 40032U 14033Y   25116.45194893  .00012690  00000-0  83600-3 0  9996
2 40032  98.0409  85.8846 0009782 138.9984 221.1979 15.07623776590243
LILACSAT-2
1 40908U 15049K   25116.83421398  .00019324  00000-0  52173-3 0  9993
2 40908  97.5091 136.1513 0007900 327.3692  32.7064 15.37779590531501
IO-86
1 40931U 15052B   25038.81889873  .00001817  00000-0  15548-3 0  9993
2 40931   6.0001 108.1159 0012838 187.7041 172.2889 14.78568669506492
Horyu-4
1 41340U 16012D   25116.22214292  .00037427  00000-0  10717-2 0  9992
2 41340  30.9974  69.7909 0008245 309.4866  50.5049 15.34682549505966
Lapan A3
1 41603U 16040E   25116.86902640  .00006286  00000-0  22181-3 0  9994
2 41603  97.1378 123.2000 0012943  69.7023 290.5608 15.29499964491108
CAS-2T
1 41847U 16066G   25116.80170947  .00001427  00000-0  21336-3 0  9996
2 41847  98.4212 191.6410 0345616 311.0865  46.0942 14.43365770444707
CAS-4B
1 42759U 17034B   25116.75451266  .00079547  00000-0  10323-2 0  9996
2 42759  43.0089 222.0197 0019597 341.4811  18.5337 15.57657930435758
CAS-4A
1 42761U 17034D   25116.75429726  .00087449  00000-0  10938-2 0  9997
2 42761  43.0123 219.5842 0020811 345.9777  14.0507 15.58565435435770
TechnoSat
1 42829U 17042E   25116.52947439  .00006105  00000-0  47628-3 0  9999
2 42829  97.3922 287.3452 0015644  71.3064 288.9858 15.01406466424114
AO-91
1 43017U 17073E   25116.56019399  .00013060  00000-0  68077-3 0  9991
2 43017  97.5329 348.4536 0173238 317.0936  41.6881 15.03970939402592
S-Net D
1 43186U 18014G   25116.67653762  .00009674  00000-0  57706-3 0  9997
2 43186  97.5668  20.0380 0009934  26.4604 333.7131 15.11315064395741
S-Net B
1 43187U 18014H   25116.68137735  .00009598  00000-0  57279-3 0  9996
2 43187  97.5670  20.0123 0010486  21.2247 338.9416 15.11295785395740
S-Net A
1 43188U 18014J   25116.67707139  .00009894  00000-0  58993-3 0  9990
2 43188  97.5681  20.1523 0010453  22.3243 337.8440 15.11321013395749
S-Net C
1 43189U 18014K   25116.68367872  .00009695  00000-0  57843-3 0  9990
2 43189  97.5694  20.1656 0011650  13.8249 346.3297 15.11293257394294
Ten-Koh
1 43677U 18084G   25116.44909561  .00004601  00000-0  37166-3 0  9998
2 43677  98.0910 286.9515 0008450  72.5341 287.6804 15.00329702353624
PO-101
1 43678U 18084H   25116.84351947  .00005063  00000-0  43250-3 0  9996
2 43678  98.1027 291.3111 0010145  75.1616 285.0728 14.98106135353834
QO-100
1 43700U 18090A   25116.24967126  .00000147  00000-0  00000+0 0  9995
2 43700   0.0102 203.0659 0001680 230.5552 256.5502  1.00271519 23748
MinXSS-2
1 43758U 18099A   25116.76140366  .00022731  00000-0  93299-3 0  9992
2 43758  97.5052 182.6956 0010410 311.8350  48.1997 15.24183106350299
AO-95
1 43770U 18099N   25116.71330028  .00015385  00000-0  79498-3 0  9999
2 43770  97.4953 175.3019 0010576  13.4640 346.6873 15.16326695349909
RANGE-A
1 43773U 18099R   25116.10230583  .00008069  00000-0  51896-3 0  9993
2 43773  97.4525 165.7965 0010786 353.0504   7.0573 15.08607862349516
MOVE-II
1 43780U 18099Y   25116.16608947  .00176631  00000-0  21571-2 0  9997
2 43780  97.4691 188.9696 0003917 241.4942 118.5920 15.59841204350848
SNUSat 2
1 43782U 18099AA  25115.86974558  .00012969  00000-0  71989-3 0  9991
2 43782  97.4644 171.5784 0010529 312.8533  47.1813 15.13822674349734
SnugLite
1 43784U 18099AC  25116.68684371  .00014870  00000-0  76283-3 0  9990
2 43784  97.4453 171.8562 0001978 327.2755  32.8355 15.16633833349984
ITASat 1
1 43786U 18099AE  25116.68752948  .00010643  00000-0  61661-3 0  9996
2 43786  97.4612 172.0153 0014162   4.9742 355.1627 15.12298661349824
EAGLET 1
1 43790U 18099AJ  25116.71485619  .00006915  00000-0  44509-3 0  9992
2 43790  97.4798 172.1365 0011456 347.1387  12.9548 15.08623817349459
ESEO
1 43792U 18099AL  25116.84762328  .00003066  00000-0  23551-3 0  9991
2 43792  97.4522 166.1111 0010501 323.2990  36.7515 15.02428629349257
CSIM
1 43793U 18099AM  25116.77880366  .00149043  00000-0  18116-2 0  9993
2 43793  97.4861 191.8085 0006501 248.1156 111.9410 15.60044528350789
JO-97
1 43803U 18099AX  25116.15706024  .00019365  00000-0  90882-3 0  9999
2 43803  97.4711 175.6570 0005982 303.3207  56.7454 15.19671151350020
Suomi 100
1 43804U 18099AY  25116.49801491  .00014118  00000-0  70720-3 0  9991
2 43804  97.4771 175.4104 0010973 303.5375  56.4810 15.17434652350015
ISAT
1 43879U 18111D   25115.73161194  .00030608  00000-0  11207-2 0  9999
2 43879  97.5989  29.1910 0009360  13.3615 346.7870 15.27937154346843
UWE-4
1 43880U 18111E   25115.73140117  .00023632  00000-0  96355-3 0  9990
2 43880  97.5931  27.9684 0013028  18.9693 341.2026 15.24371613346795
Sparrow
1 43881U 18111F   25115.74792168  .00032505  00000-0  11503-2 0  9991
2 43881  97.6125  31.9184 0009144  50.7997 309.4053 15.29044265346934
Prox-1
1 44339U 19036A   25116.84536647  .00018572  00000-0  24236-2 0  9992
2 44339  23.9986 348.8702 0007322 296.7616  63.2132 14.78929941311629
SONATE
1 44400U 19038Q   25116.56314349  .00167183  00000-0  10473-2 0  9996
2 44400  97.6970 138.1688 0007215  77.7112 282.4960 15.76286688322608
Taurus 1
1 44530U 19059C   25116.82649029  .00014941  00000-0  27795-2 0  9996
2 44530  98.6013 254.1757 0010784 168.2667 191.8788 14.65172928297535
